Weather History for KFLP - October, 2013

Change the Weather History Date:

Saturday, October 5, 2013

  Actual Average Record
Temperature  
Mean Temperature 62 °F -  
Max Temperature 75 °F 71 °F 87 °F (2007)
Min Temperature 50 °F 48 °F 33 °F (1999)
Degree Days  
Heating Degree Days 2    
Growing Degree Days 12 (Base 50)    
Moisture  
Dew Point 55 °F    
Average Humidity 69    
Maximum Humidity 73    
Minimum Humidity 61    
Precipitation  
Precipitation 0.00 in - - ()
Sea Level Pressure  
Sea Level Pressure 29.96 in    
Wind  
Wind Speed 3 mph (WNW)    
Max Wind Speed 17 mph    
Max Gust Speed 26 mph    
Visibility 10 miles    
Events Thunderstorm    
Averages and records for this station are not official NWS values.
T = Trace of Precipitation, MM = Missing Value Source: NWS Daily Summary

Daily Weather History Graph

Daily Weather History Graph

Search for Another Location

Airport or City:

Trip Planner

Search our weather history database for the weather conditions in past years. The results will help you decide how hot, cold, wet, or windy it might be!

Date:

Astronomy

Oct. 05, 2013 Rise Set
Actual Time 7:09 AM CDT 6:47 PM CDT
Civil Twilight 6:43 AM CDT 7:13 PM CDT
Nautical Twilight 6:13 AM CDT 7:43 PM CDT
Astronomical Twilight 5:43 AM CDT 8:12 PM CDT
Moon 7:46 AM CDT (10/5) 7:09 PM CDT (10/5)
Length of Visible Light 12h 30m
Length of Day
11h 38m
New Moon, 1% of the Moon is Illuminated
Oct 5
New Moon
Oct 11
First Quarter
Oct 18
Full
Oct 26
Last Quarter
Nov 3
New

Hourly Weather History & Observations

Time (CDT) Temp. Dew Point Humidity Pressure Visibility Wind Dir Wind Speed Gust Speed Precip Events Conditions
12:15 AM 73.4 °F 60.8 °F 65% 29.96 in 10.0 mi Calm Calm - N/A   Scattered Clouds
12:35 AM 73.4 °F 60.8 °F 65% 29.95 in 10.0 mi SE 4.6 mph - N/A   Clear
12:55 AM 73.4 °F 62.6 °F 69% 29.95 in 10.0 mi SE 4.6 mph - N/A   Clear
1:15 AM 73.4 °F 62.6 °F 69% 29.94 in 10.0 mi ESE 3.5 mph - N/A   Mostly Cloudy
1:35 AM 73.4 °F 60.8 °F 65% 29.96 in 10.0 mi Calm Calm - N/A   Mostly Cloudy
1:55 AM 73.4 °F 62.6 °F 69% 29.96 in 10.0 mi Calm Calm - N/A   Mostly Cloudy
2:15 AM 73.4 °F 62.6 °F 69% 29.96 in 10.0 mi Calm Calm - N/A   Overcast
3:15 AM 71.6 °F 62.6 °F 73% 29.96 in 10.0 mi Calm Calm - N/A   Mostly Cloudy
3:35 AM 71.6 °F 62.6 °F 73% 29.95 in 10.0 mi Calm Calm - N/A   Mostly Cloudy
3:55 AM 71.6 °F 62.6 °F 73% 29.94 in 10.0 mi Calm Calm - N/A   Mostly Cloudy
4:15 AM 71.6 °F 60.8 °F 69% 29.94 in 10.0 mi Calm Calm - N/A   Scattered Clouds
4:35 AM 71.6 °F 62.6 °F 73% 29.94 in 10.0 mi Calm Calm - N/A   Mostly Cloudy
4:55 AM 71.6 °F 62.6 °F 73% 29.93 in 10.0 mi SE 3.5 mph - N/A   Mostly Cloudy
5:15 AM 71.6 °F 62.6 °F 73% 29.93 in 10.0 mi SE 4.6 mph - N/A   Mostly Cloudy
5:35 AM 71.6 °F 62.6 °F 73% 29.93 in 7.0 mi Calm Calm - N/A   Mostly Cloudy
5:55 AM 71.6 °F 62.6 °F 73% 29.93 in 10.0 mi Calm Calm - N/A   Scattered Clouds
6:15 AM 71.6 °F 62.6 °F 73% 29.93 in 10.0 mi ENE 3.5 mph - N/A   Partly Cloudy
6:55 AM 71.6 °F 62.6 °F 73% 29.93 in 10.0 mi Calm Calm - N/A   Partly Cloudy
7:15 AM 71.6 °F 62.6 °F 73% 29.93 in 10.0 mi Calm Calm - N/A   Scattered Clouds
7:55 AM 71.6 °F 62.6 °F 73% 29.94 in 10.0 mi East 3.5 mph - N/A   Clear
8:15 AM 73.4 °F 62.6 °F 69% 29.94 in 10.0 mi Calm Calm - N/A   Clear
8:35 AM 75.2 °F 64.4 °F 69% 29.95 in 10.0 mi West 3.5 mph - N/A   Scattered Clouds
8:55 AM 75.2 °F 64.4 °F 69% 29.95 in 10.0 mi SSW 3.5 mph - N/A   Mostly Cloudy
9:15 AM 75.2 °F 64.4 °F 69% 29.97 in 10.0 mi SW 3.5 mph - N/A   Overcast
9:35 AM 73.4 °F 59.0 °F 61% 29.98 in 10.0 mi NW 13.8 mph 24.2 mph N/A   Overcast
9:55 AM 69.8 °F 57.2 °F 64% 29.99 in 10.0 mi NNW 6.9 mph - N/A   Overcast
10:15 AM 69.8 °F 57.2 °F 64% 29.99 in 10.0 mi North 9.2 mph - N/A   Overcast
10:35 AM 69.8 °F 57.2 °F 64% 29.99 in 10.0 mi North 6.9 mph - N/A   Overcast
10:55 AM 68.0 °F 57.2 °F 68% 30.00 in 10.0 mi Calm Calm - N/A   Mostly Cloudy
11:15 AM 68.0 °F 57.2 °F 68% 30.00 in 10.0 mi West 4.6 mph - N/A   Overcast
11:35 AM 68.0 °F 57.2 °F 68% 30.00 in 10.0 mi Calm Calm - N/A   Overcast
11:55 AM 68.0 °F 57.2 °F 68% 29.97 in 10.0 mi East 4.6 mph - N/A   Mostly Cloudy
12:15 PM 68.0 °F 57.2 °F 68% 29.96 in 10.0 mi Calm Calm - N/A   Clear
12:35 PM 68.0 °F 57.2 °F 68% 29.96 in 10.0 mi SSE 3.5 mph - N/A   Clear
1:15 PM 68.0 °F 57.2 °F 68% 29.94 in 10.0 mi ESE 3.5 mph - N/A   Scattered Clouds
1:35 PM 68.0 °F 57.2 °F 68% 29.92 in 10.0 mi ESE 4.6 mph - N/A   Scattered Clouds
1:55 PM 69.8 °F 60.8 °F 73% 29.91 in 10.0 mi Calm Calm - N/A   Scattered Clouds
2:15 PM 69.8 °F 59.0 °F 68% 29.91 in 10.0 mi SW 3.5 mph - N/A   Scattered Clouds
2:35 PM 71.6 °F 60.8 °F 69% 29.91 in 10.0 mi West 4.6 mph - N/A   Partly Cloudy
2:55 PM 71.6 °F 60.8 °F 69% 29.91 in 10.0 mi WNW 5.8 mph - N/A   Mostly Cloudy
3:15 PM 64.4 °F 51.8 °F 64% 29.94 in 10.0 mi NW 17.3 mph 26.5 mph N/A   Overcast
3:55 PM 59.0 °F 48.2 °F 67% 29.95 in 10.0 mi North 6.9 mph - N/A   Overcast
4:15 PM 57.2 °F 46.4 °F 67% 29.97 in 10.0 mi WNW 10.4 mph 18.4 mph N/A   Overcast
4:35 PM 57.2 °F 46.4 °F 67% 29.97 in 5.0 mi NW 10.4 mph - N/A   Overcast
4:55 PM 55.4 °F 46.4 °F 72% 29.98 in 5.0 mi WNW 12.7 mph - N/A   Overcast
5:15 PM 53.6 °F 44.6 °F 72% 29.97 in 7.0 mi NW 9.2 mph - N/A   Overcast
5:55 PM 53.6 °F 44.6 °F 72% 29.97 in 10.0 mi NW 5.8 mph - N/A   Overcast
6:15 PM 53.6 °F 44.6 °F 72% 30.00 in 10.0 mi West 8.1 mph - N/A   Overcast
6:35 PM 53.6 °F 42.8 °F 67% 29.98 in 10.0 mi NW 5.8 mph - N/A   Overcast
6:55 PM 51.8 °F 41.0 °F 67% 29.98 in 10.0 mi WNW 10.4 mph - N/A   Overcast
7:35 PM 50.0 °F 39.2 °F 66% 29.99 in 10.0 mi WNW 9.2 mph - N/A   Mostly Cloudy
7:55 PM 51.8 °F 39.2 °F 62% 30.00 in 10.0 mi West 6.9 mph - N/A   Overcast
8:15 PM 51.8 °F 41.0 °F 67% 30.01 in 10.0 mi West 5.8 mph - N/A Thunderstorm Overcast
9:15 PM 51.8 °F 42.8 °F 71% 30.00 in 10.0 mi Calm Calm - N/A   Overcast
9:35 PM 51.8 °F 42.8 °F 71% 30.01 in 10.0 mi SE 3.5 mph - N/A   Scattered Clouds
9:55 PM 51.8 °F 42.8 °F 71% 30.01 in 10.0 mi Calm Calm - N/A   Mostly Cloudy
10:15 PM 51.8 °F 42.8 °F 71% 30.01 in 10.0 mi Calm Calm - N/A   Scattered Clouds
10:35 PM 51.8 °F 42.8 °F 71% 30.01 in 10.0 mi Calm Calm - N/A   Partly Cloudy
10:55 PM 51.8 °F 42.8 °F 71% 30.01 in 10.0 mi WSW 3.5 mph - N/A   Clear
11:15 PM 51.8 °F 42.8 °F 71% 30.01 in 10.0 mi West 5.8 mph - N/A   Scattered Clouds
11:35 PM 51.8 °F 42.8 °F 71% 30.00 in 10.0 mi Calm Calm - N/A   Overcast
11:55 PM 51.8 °F 42.8 °F 71% 29.98 in 10.0 mi West 4.6 mph - N/A   Overcast